User: anonymous   Login
Location: Zagreb
(45.8000°N, 16.0000°E)
Time: 02:38:49
(UTC+02:00)
Language:

Transit 4A - Orbit

View from above orbital plane
View from above orbital plane
View from above satellite
View from above satellite

Ground track
Ground track

The orbit data is extracted from the following two-line orbital elements,

1   116U 61015A   20226.02743403 -.00000079  00000-0 -13747-5 0  9991
2   116  66.8096  69.9176 0079305 324.8674  34.7190 13.91773315   173
Epoch (UTC): 13 August 2020 00:39:30
Eccentricity: 0.0079305
inclination: 66.8096°
perigee height: 864 km
apogee height: 980 km
right ascension of ascending node: 69.9176°
argument of perigee: 324.8674°
revolutions per day: 13.91773315
mean anomaly at epoch: 34.7190°
orbit number at epoch: 17

The dashed part of the orbit path shows where the satellite is in the earth's shadow,  

DLR